Time,TemperatureF,DewpointF,PressureIn,WindDirection,WindDirectionDegrees,WindSpeedMPH,WindSpeedGustMPH,Humidity,HourlyPrecipIn,Conditions,Clouds,dailyrainin,SolarRadiationWatts/m^2,SoftwareType,DateUTC
2013-06-20 00:01:00,51.0,49.0,30.02,SSE,152,0.0,0.0,92,-99.99,,,-99.99,0.000000,,2013-06-20 07:01:00,
2013-06-20 00:22:00,51.0,49.0,30.02,SSE,152,0.0,0.0,92,-99.99,,,-99.99,0.000000,,2013-06-20 07:22:00,
2013-06-20 00:34:00,50.0,48.0,30.01,SSE,153,0.0,0.0,93,-99.99,,,-99.99,0.000000,,2013-06-20 07:34:00,
2013-06-20 00:43:00,50.0,48.0,30.02,SSE,152,0.0,0.0,93,-99.99,,,-99.99,0.000000,,2013-06-20 07:43:00,
2013-06-20 00:50:00,50.0,49.0,30.02,SSE,150,0.0,0.0,94,-99.99,,,-99.99,0.000000,,2013-06-20 07:50:00,
2013-06-20 00:52:00,50.0,48.0,30.02,SSE,151,0.0,0.0,94,-99.99,,,-99.99,0.000000,,2013-06-20 07:52:00,
2013-06-20 01:02:00,50.0,49.0,30.02,SSE,151,0.0,0.0,94,-99.99,,,-99.99,0.000000,,2013-06-20 08:02:00,
2013-06-20 01:11:00,50.0,49.0,30.02,SSE,151,0.0,0.0,94,-99.99,,,-99.99,0.000000,,2013-06-20 08:11:00,
2013-06-20 01:20:00,50.0,49.0,30.01,SSE,150,0.0,0.0,95,-99.99,,,-99.99,0.000000,,2013-06-20 08:20:00,
2013-06-20 01:22:00,50.0,48.0,30.00,SSE,150,0.0,0.0,94,-99.99,,,-99.99,0.000000,,2013-06-20 08:22:00,
2013-06-20 01:34:00,50.0,49.0,30.02,SSE,150,0.0,0.0,94,-99.99,,,-99.99,0.000000,,2013-06-20 08:34:00,
2013-06-20 01:43:00,50.0,49.0,30.02,SSE,150,0.0,0.0,94,-99.99,,,-99.99,0.000000,,2013-06-20 08:43:00,
2013-06-20 02:11:00,50.0,49.0,30.01,SSE,150,0.0,0.0,95,-99.99,,,-99.99,0.000000,,2013-06-20 09:11:00,
2013-06-20 02:42:00,50.0,49.0,29.99,SSE,150,0.0,0.0,95,-99.99,,,-99.99,0.000000,,2013-06-20 09:42:00,
2013-06-20 02:52:00,50.0,49.0,29.99,SSE,150,0.0,0.0,94,-99.99,,,-99.99,0.000000,,2013-06-20 09:52:00,
2013-06-20 03:01:00,50.0,48.0,29.99,SSE,150,0.0,0.0,94,-99.99,,,-99.99,0.000000,,2013-06-20 10:01:00,
2013-06-20 03:10:00,50.0,49.0,29.98,SSE,149,0.0,0.0,95,-99.99,,,-99.99,0.000000,,2013-06-20 10:10:00,
2013-06-20 03:11:00,50.0,48.0,29.99,SSE,150,0.0,0.0,94,-99.99,,,-99.99,0.000000,,2013-06-20 10:11:00,
2013-06-20 03:22:00,50.0,49.0,29.99,SSE,149,0.0,0.0,94,-99.99,,,-99.99,0.000000,,2013-06-20 10:22:00,
2013-06-20 03:30:00,50.0,49.0,29.98,SSE,149,0.0,0.0,95,-99.99,,,-99.99,0.000000,,2013-06-20 10:30:00,
2013-06-20 03:33:00,50.0,49.0,29.99,SSE,149,0.0,0.0,94,-99.99,,,-99.99,0.000000,,2013-06-20 10:33:00,
2013-06-20 03:43:00,50.0,49.0,29.98,SSE,149,0.0,0.0,94,-99.99,,,-99.99,0.000000,,2013-06-20 10:43:00,
2013-06-20 03:53:00,50.0,49.0,29.98,SSE,149,0.0,0.0,95,-99.99,,,-99.99,0.000000,,2013-06-20 10:53:00,
2013-06-20 04:02:00,50.0,49.0,29.98,SSE,149,0.0,0.0,95,-99.99,,,-99.99,0.000000,,2013-06-20 11:02:00,
2013-06-20 04:20:00,49.0,48.0,29.97,SSE,148,0.0,0.0,96,-99.99,,,-99.99,0.000000,,2013-06-20 11:20:00,
2013-06-20 04:22:00,50.0,49.0,29.98,SSE,149,0.0,0.0,95,-99.99,,,-99.99,0.000000,,2013-06-20 11:22:00,
2013-06-20 04:53:00,49.0,48.0,29.98,SSE,148,0.0,0.0,96,-99.99,,,-99.99,0.000000,,2013-06-20 11:53:00,
2013-06-20 05:00:00,49.0,48.0,29.96,SSE,147,0.0,0.0,96,-99.99,,,-99.99,0.000000,,2013-06-20 12:00:00,
2013-06-20 05:02:00,49.0,48.0,29.98,SSE,148,0.0,0.0,96,-99.99,,,-99.99,0.000000,,2013-06-20 12:02:00,
2013-06-20 05:11:00,49.0,48.0,29.97,SSE,148,0.0,0.0,96,-99.99,,,-99.99,0.000000,,2013-06-20 12:11:00,
2013-06-20 05:20:00,49.0,48.0,29.96,North,-999,0.0,0.0,97,-99.99,,,-99.99,0.000000,,2013-06-20 12:20:00,
2013-06-20 05:30:00,49.0,48.0,29.97,North,-999,0.0,0.0,97,-99.99,,,-99.99,0.000000,,2013-06-20 12:30:00,
2013-06-20 05:34:00,49.0,48.0,29.96,SSE,147,0.0,0.0,96,-99.99,,,-99.99,0.000000,,2013-06-20 12:34:00,
2013-06-20 05:43:00,49.0,48.0,29.96,SSE,147,0.0,0.0,96,-99.99,,,-99.99,0.000000,,2013-06-20 12:43:00,
2013-06-20 05:53:00,49.0,48.0,29.96,SSE,147,0.0,0.0,96,-99.99,,,-99.99,0.000000,,2013-06-20 12:53:00,
2013-06-20 06:11:00,49.0,48.0,29.96,North,-999,0.0,0.0,97,-99.99,,,-99.99,0.000000,,2013-06-20 13:11:00,
2013-06-20 06:30:00,49.0,48.0,29.98,North,-999,0.0,0.0,98,-99.99,,,-99.99,12.000000,,2013-06-20 13:30:00,
2013-06-20 06:42:00,49.0,48.0,29.98,North,-999,0.0,0.0,97,-99.99,,,-99.99,1.000000,,2013-06-20 13:42:00,
2013-06-20 06:50:00,49.0,48.0,29.98,North,-999,0.0,0.0,96,-99.99,,,-99.99,18.000000,,2013-06-20 13:50:00,
2013-06-20 06:53:00,49.0,48.0,29.98,North,-999,0.0,0.0,98,-99.99,,,-99.99,3.000000,,2013-06-20 13:53:00,
2013-06-20 07:01:00,49.0,48.0,29.98,North,-999,0.0,0.0,98,-99.99,,,-99.99,6.000000,,2013-06-20 14:01:00,
2013-06-20 07:11:00,49.0,48.0,29.98,North,-999,0.0,0.0,98,-99.99,,,-99.99,9.000000,,2013-06-20 14:11:00,
2013-06-20 07:20:00,49.0,48.0,29.99,North,-999,0.0,0.0,94,-99.99,,,-99.99,30.000000,,2013-06-20 14:20:00,
2013-06-20 07:22:00,49.0,48.0,29.98,North,-999,0.0,0.0,98,-99.99,,,-99.99,12.000000,,2013-06-20 14:22:00,
2013-06-20 07:42:00,49.0,48.0,29.98,North,-999,0.0,0.0,96,-99.99,,,-99.99,18.000000,,2013-06-20 14:42:00,
2013-06-20 08:00:00,50.0,49.0,30.00,North,-999,0.0,0.0,95,-99.99,,,-99.99,45.000000,,2013-06-20 15:00:00,
2013-06-20 08:11:00,49.0,48.0,29.99,North,-999,0.0,0.0,94,-99.99,,,-99.99,30.000000,,2013-06-20 15:11:00,
2013-06-20 08:30:00,49.0,48.0,29.99,North,-999,0.0,0.0,96,-99.99,,,-99.99,51.000000,,2013-06-20 15:30:00,
2013-06-20 08:43:00,49.0,48.0,29.99,North,-999,0.0,0.0,95,-99.99,,,-99.99,41.000000,,2013-06-20 15:43:00,
2013-06-20 08:52:00,50.0,49.0,30.00,North,-999,0.0,0.0,95,-99.99,,,-99.99,45.000000,,2013-06-20 15:52:00,
2013-06-20 09:11:00,49.0,48.0,29.99,North,-999,0.0,0.0,96,-99.99,,,-99.99,49.000000,,2013-06-20 16:11:00,
2013-06-20 09:20:00,50.0,49.0,30.01,North,-999,0.0,0.0,96,-99.99,,,-99.99,63.000000,,2013-06-20 16:20:00,
2013-06-20 09:22:00,49.0,48.0,29.99,North,-999,0.0,0.0,96,-99.99,,,-99.99,51.000000,,2013-06-20 16:22:00,
2013-06-20 09:42:00,50.0,49.0,30.00,North,-999,0.0,0.0,95,-99.99,,,-99.99,56.000000,,2013-06-20 16:42:00,
2013-06-20 09:50:00,49.0,48.0,30.02,North,-999,0.0,0.0,97,-99.99,,,-99.99,57.000000,,2013-06-20 16:50:00,
2013-06-20 09:52:00,50.0,49.0,30.00,North,-999,0.0,0.0,95,-99.99,,,-99.99,58.000000,,2013-06-20 16:52:00,
2013-06-20 10:01:00,49.0,48.0,30.00,North,-999,0.0,0.0,96,-99.99,,,-99.99,60.000000,,2013-06-20 17:01:00,
2013-06-20 10:11:00,50.0,49.0,30.01,North,-999,0.0,0.0,96,-99.99,,,-99.99,63.000000,,2013-06-20 17:11:00,
2013-06-20 10:32:00,50.0,49.0,30.02,North,-999,0.0,0.0,96,-99.99,,,-99.99,62.000000,,2013-06-20 17:32:00,
2013-06-20 10:43:00,49.0,48.0,30.02,North,-999,0.0,0.0,97,-99.99,,,-99.99,57.000000,,2013-06-20 17:43:00,
2013-06-20 11:11:00,50.0,49.0,30.02,North,-999,0.0,0.0,96,-99.99,,,-99.99,70.000000,,2013-06-20 18:11:00,
2013-06-20 11:22:00,50.0,49.0,30.02,SE,139,0.0,0.0,96,-99.99,,,-99.99,71.000000,,2013-06-20 18:22:00,
2013-06-20 11:33:00,50.0,49.0,30.02,SE,139,0.0,0.0,96,-99.99,,,-99.99,73.000000,,2013-06-20 18:33:00,
2013-06-20 11:43:00,50.0,49.0,30.02,SE,138,0.0,0.0,96,-99.99,,,-99.99,75.000000,,2013-06-20 18:43:00,
2013-06-20 11:53:00,50.0,49.0,30.01,SE,142,0.0,0.0,96,-99.99,,,-99.99,77.000000,,2013-06-20 18:53:00,
2013-06-20 12:00:00,50.0,49.0,30.02,North,-999,0.0,0.0,95,-99.99,,,-99.99,86.000000,,2013-06-20 19:00:00,
2013-06-20 12:01:00,50.0,49.0,30.01,SE,144,0.0,0.0,96,-99.99,,,-99.99,79.000000,,2013-06-20 19:01:00,
2013-06-20 12:11:00,50.0,49.0,30.02,SE,145,0.0,0.0,95,-99.99,,,-99.99,81.000000,,2013-06-20 19:11:00,
2013-06-20 12:22:00,50.0,49.0,30.02,SSE,149,0.0,0.0,95,-99.99,,,-99.99,83.000000,,2013-06-20 19:22:00,
2013-06-20 12:34:00,50.0,49.0,30.02,North,-999,0.0,0.0,95,-99.99,,,-99.99,85.000000,,2013-06-20 19:34:00,
2013-06-20 12:43:00,50.0,49.0,30.02,North,-999,0.0,0.0,95,-99.99,,,-99.99,86.000000,,2013-06-20 19:43:00,
2013-06-20 12:52:00,50.0,49.0,30.02,North,-999,0.0,0.0,95,-99.99,,,-99.99,86.000000,,2013-06-20 19:52:00,
2013-06-20 13:00:00,51.0,49.0,30.01,North,-999,0.0,0.0,94,-99.99,,,-99.99,95.000000,,2013-06-20 20:00:00,
2013-06-20 13:11:00,50.0,49.0,30.02,North,-999,0.0,0.0,95,-99.99,,,-99.99,89.000000,,2013-06-20 20:11:00,
2013-06-20 13:22:00,50.0,49.0,30.01,North,-999,0.0,0.0,94,-99.99,,,-99.99,90.000000,,2013-06-20 20:22:00,
2013-06-20 13:33:00,51.0,49.0,30.01,North,-999,0.0,0.0,94,-99.99,,,-99.99,92.000000,,2013-06-20 20:33:00,
2013-06-20 13:52:00,51.0,49.0,30.01,North,-999,0.0,0.0,94,-99.99,,,-99.99,95.000000,,2013-06-20 20:52:00,
2013-06-20 14:11:00,51.0,49.0,30.01,North,-999,0.0,0.0,93,-99.99,,,-99.99,100.000000,,2013-06-20 21:11:00,
2013-06-20 17:11:00,53.0,48.0,29.99,North,-999,0.0,0.0,83,-99.99,,,-99.99,128.000000,,2013-06-21 00:11:00,